Location: Limerick
(52.6800°N, 8.6400°W)
Time: 18:15:05
(UTC+00:00)

Daily predictions for brighter satellites

Satellite Brightness Start Highest point End
(mag) Time Altitude Azimuth Time Altitude Azimuth Time Altitude Azimuth
Cosmos 2237 4.3 17:31:11 10° SSW 17:36:52 74° ESE 17:42:36 10° NE
Cosmos 2297 4.0 17:33:08 10° NNW 17:38:40 47° NE 17:44:10 10° ESE
In-Cosmos 22 4.3 17:33:39 10° SSW 17:39:06 83° WNW 17:44:42 10° NNE
Cosmos 1151 Rocket 3.3 17:35:54 10° N 17:40:03 45° ENE 17:44:10 10° SSE
Cosmos 1743 Rocket 3.9 17:36:45 10° SSE 17:41:03 46° E 17:45:21 10° NNE
Cosmos 332 Rocket 4.2 17:36:31 10° S 17:41:07 45° ESE 17:45:47 10° NE
Cosmos 1844 Rocket 3.8 17:37:17 10° NW 17:42:46 51° WSW 17:48:13 10° S
Cosmos 1076 Rocket 3.8 17:38:52 10° SSW 17:43:07 72° WNW 17:47:26 10° N
Meteor 2-10 4.4 17:39:57 10° N 17:44:45 41° ENE 17:49:39 10° SE
COSMOS 2441 4.5 17:41:45 10° SE 17:46:30 56° ENE 17:51:14 10° N
Cosmos 841 Rocket 3.7 17:41:33 10° S 17:46:43 58° ESE 17:51:55 10° NNE
Cosmos 1515 Rocket 3.6 17:42:21 10° N 17:46:52 74° ENE 17:51:18 10° SSE
Cosmos 1300 2.9 17:43:24 10° N 17:47:09 47° ENE 17:50:51 10° SSE
Cosmos 44 4.5 17:42:53 10° S 17:47:15 28° ESE 17:51:28 10° ENE
Tsikada Rocket 4.1 17:41:34 10° S 17:47:58 80° E 17:54:26 10° NNE
Lacrosse 4 Rocket 2.4 17:44:39 10° NNW 17:48:07 26° NE 17:51:33 10° E
Thor Agena Rocket 4.1 17:43:25 10° NNE 17:48:23 40° E 17:53:15 10° SSE
ALOS 3.8 17:51:58 10° E 17:54:52 16° NE 17:57:44 10° NNE
Cosmos 2322 4.2 17:49:18 10° SW 17:54:56 63° NW 18:00:39 10° NNE
Cosmos 468 Rocket 4.5 17:52:11 10° SW 17:57:18 61° WNW 18:02:24 10° NNE
SPOT 3 Rocket 3.6 17:52:12 10° SSE 17:57:21 90° ESE 18:02:36 10° NNW
SL-16 R/B 3.7 17:52:44 10° WSW 17:57:46 31° NW 18:02:48 10° NNE
EO 1 Del DPAF 4.2 17:54:55 10° N 17:58:40 50° WNW 18:02:24 10° SW
Cosmos 1634 Rocket 4.0 17:53:26 10° N 17:59:40 80° ENE 18:05:51 10° SSE
GEOS 3 Rocket 4.4 17:55:00 10° NE 17:59:54 44° NNW 18:04:50 10° WSW
SL-14 R/B 4.0 17:56:46 10° SSE 18:00:20 32° E 18:03:57 10° NNE
Cosmos 1340 Rocket 4.1 17:58:14 10° SE 18:01:11 21° E 18:04:09 10° NE
Cosmos 1484 Rocket 2.9 17:59:34 10° SSE 18:03:28 57° ENE 18:07:26 10° N
Cosmos 2084 3.7 18:01:27 10° SSW 18:05:05 41° SE 18:08:06 14° ENE
Cosmos 1500 Rocket 3.6 18:02:16 10° S 18:06:32 59° E 18:10:53 10° NNE
Cosmos 2360 Rocket 3.0 18:02:59 10° SW 18:08:26 48° NW 18:13:53 10° NNE
Cosmos 371 Rocket 3.4 18:04:50 10° S 18:09:33 59° ESE 18:14:19 10° NNE
Cosmos 2333 4.2 18:04:01 10° SSW 18:09:37 89° ESE 18:15:16 10° NNE
Cosmos 1980 Rocket 4.2 18:06:47 10° WNW 18:10:24 17° NNW 18:14:02 10° NNE
SMAP 3.6 18:07:10 10° S 18:11:47 63° WSW 18:16:27 10° NNW
Cosmos 2058 3.5 18:08:37 10° SSE 18:12:19 34° E 18:16:03 10° NNE
Meteor 1-28 Rocket 4.4 18:09:42 11° NE 18:12:20 21° E 18:15:15 10° SE
Cosmos 1980 4.0 18:08:21 10° S 18:13:47 49° ESE 18:19:15 10° NE
ATLAS 5 CENTAUR R/B 3.2 18:10:15 10° NW 18:15:02 30° NNE 18:19:05 15° ENE
Sich 1 4.5 18:12:36 10° SE 18:15:39 18° E 18:17:36 14° NE
ATLAS 3B R/B 3.7 18:10:25 10° WNW 18:17:01 34° N 18:22:28 13° NE
Blok-2BL 4.2 18:15:44 10° NW 18:18:49 31° NNE 18:20:35 19° E
IDEFIX/ARIANE 42P 3.7 18:16:42 10° S 18:21:45 49° W 18:26:53 10° NNW
Timation 1 Rocket 4.4 18:17:24 10° NW 18:23:28 86° WSW 18:29:30 10° SSE
Orbus 7S? 3.6 18:20:30 10° WNW 18:23:44 83° NNE 18:30:29 10° ESE
MSX 4.2 18:18:19 10° S 18:24:00 69° WSW 18:29:46 10° NNW
Cosmos 1633 Rocket 4.4 18:21:02 10° SE 18:24:10 19° E 18:25:09 18° ENE
USA 215 3.4 18:18:04 10° ESE 18:24:40 83° SSW 18:31:15 10° WNW
NOAA 12 4.2 18:19:43 10° SE 18:24:46 51° ENE 18:29:53 10° N
Cosmos 836 Rocket 4.5 18:20:39 10° SSW 18:25:53 77° ESE 18:31:13 10° NNE
CZ-4C R/B 3.5 18:24:49 10° NW 18:30:30 34° N 18:35:00 18° ENE
Cosmos 1763 Rocket 4.0 18:26:05 10° SW 18:31:13 59° WNW 18:36:19 10° NNE
Cosmos 44 Rocket 3.3 18:26:16 10° SW 18:31:21 77° SE 18:35:18 17° NE
Cosmos 2219 Rocket 2.2 18:27:07 10° SSW 18:32:46 89° ESE 18:38:26 10° NNE
Cosmos 1943 Rocket 3.6 18:29:07 10° NNW 18:33:07 20° NNE 18:34:49 17° NE
Cosmos 1356 Rocket 4.3 18:30:05 10° SE 18:33:22 25° E 18:34:16 23° ENE
Cosmos 2333 Rocket 2.2 18:29:03 10° SSW 18:34:40 76° ESE 18:40:09 11° NE
Lacrosse 5 rocket 3.7 18:32:35 10° W 18:35:32 22° SW 18:38:36 10° S
Cosmos 2278 Rocket 3.6 18:33:52 10° NW 18:39:12 42° WSW 18:44:30 10° S
Cosmos 2322 Rocket 4.2 18:35:33 10° W 18:39:46 21° NNW 18:43:58 10° NNE
USA 116 4.0 18:36:59 10° N 18:40:09 51° WNW 18:43:11 10° SSW
Cosmos 540 Rocket 3.4 18:35:24 10° SSW 18:40:33 73° ESE 18:45:34 11° NNE
Cosmos 1707 Rocket 3.5 18:37:58 10° N 18:42:18 63° ENE 18:46:36 10° SSE
Helios 1A 4.4 18:43:42 21° NE 18:43:42 21° NE 18:46:15 10° N
COSMO-SKYMED 1 2.5 18:38:52 10° NNE 18:43:12 61° E 18:47:30 10° S
NOSS 3-2 (C) 4.5 18:37:30 10° W 18:43:37 42° NNW 18:49:02 16° NE
Abrixas 4.4 18:42:27 10° SSW 18:44:31 17° SSE 18:45:00 17° SE
Cosmos 304 Rocket 4.1 18:41:56 10° S 18:46:29 43° ESE 18:49:12 22° NE
Cosmos 2279 Rocket 4.1 18:41:11 10° NNW 18:47:25 80° W 18:53:39 10° S
Aureole 2 Rocket 2.8 18:44:51 10° S 18:48:40 61° ESE 18:51:08 23° NE
FREGAT/IRIS 2.6 18:49:30 10° SSE 18:52:29 54° ENE 18:55:31 10° N
Cosmos 1626 2.5 18:49:39 10° SSE 18:53:10 40° E 18:53:54 35° ENE
Cosmos 1328 4.5 18:49:33 10° SSW 18:53:27 56° WNW 18:57:21 10° N
Cosmos 2151 3.3 18:54:32 10° SSW 18:58:43 66° WNW 19:02:55 10° N
Cosmos 1666 Rocket 3.8 18:54:45 10° SSE 18:58:54 45° E 19:01:10 24° NE
Lacrosse 5 2.2 18:54:17 10° WNW 18:59:15 52° N 19:01:27 30° ENE
CENTAUR R/B 3.0 18:53:29 10° WSW 18:59:51 61° NW 19:05:20 18° NE
BREEZE-M DEB (TANK) 4.4 18:58:30 10° S 18:59:14 13° SSE 18:59:14 13° SSE
Cosmos 2084 Rocket 3.5 18:57:24 10° NW 19:01:05 45° NNE 19:01:36 42° ENE
Resurs 01 Rocket 1.8 18:56:54 10° SE 19:01:09 46° ENE 19:05:25 10° N
Cosmos 1726 4.5 18:58:56 10° NNW 19:02:09 27° W 19:05:21 10° SSW
Cosmos 1455 2.0 18:59:23 10° N 19:03:12 79° ENE 19:07:01 10° SSE
DNEPR-1 R/B 4.3 18:57:07 10° SW 19:03:34 83° NW 19:06:53 25° NE
Resurs 1-3 3.9 19:03:01 34° ESE 19:04:13 41° ENE 19:08:21 10° N
USA 229 DEB 4.5 19:00:30 10° S 19:06:10 28° ESE 19:07:14 27° E
Cosmos 2369 Rocket 2.6 19:02:36 10° NNW 19:08:01 42° NE 19:09:37 34° E
BREEZE M DEB (TANK) 4.5 19:08:19 10° WSW 19:09:00 11° SW 19:09:37 10° SSW
Cosmos 2237 Rocket 2.2 19:03:33 10° SW 19:09:12 81° WNW 19:13:37 17° NNE
SJ-6B 2.9 19:05:33 10° SSE 19:09:40 88° WSW 19:13:52 10° NNW
CZ-3A R/B 3.6 19:04:47 10° WNW 19:09:53 48° SW 19:14:55 10° SE
Cosmos 1703 3.1 19:06:37 10° S 19:10:30 80° E 19:12:51 23° NNE
Nadezhda 4 Rocket 4.0 19:07:27 10° S 19:13:38 63° E 19:19:54 10° NNE
TIMED 4.4 19:09:56 10° NNW 19:14:21 88° ENE 19:18:09 14° SSE
Spot 1 4.4 19:14:59 45° ENE 19:15:13 45° ENE 19:19:24 10° N
SL-16 R/B 2.2 19:11:10 10° SSW 19:16:43 60° ESE 19:19:12 32° NE
COSMOS 2428 4.0 19:11:34 10° WSW 19:16:48 36° NW 19:21:45 11° NNE
DMSP B5D1-3 4.5 19:17:12 10° NNE 19:22:20 86° WNW 19:27:27 10° SSW
Cosmos 2056 Rocket 4.3 19:19:46 10° NNW 19:23:50 33° NE 19:23:50 33° NE
Lacrosse 4 Rocket 1.7 19:23:08 10° NW 19:27:09 60° WSW 19:29:11 27° SSE
Cosmos 2242 Rocket 3.5 19:23:06 10° NNW 19:27:33 88° W 19:32:00 10° S
Cosmos 44 3.6 19:23:03 10° SW 19:28:12 68° NW 19:30:09 36° NNE
Spot 2 Rocket 3.3 19:23:46 10° SSE 19:28:49 79° ENE 19:33:53 10° NNW
Cosmos 1242 Rocket 4.1 19:26:16 10° N 19:27:52 25° N 19:27:52 25° N
Cosmos 921 Rocket 4.5 19:26:54 10° N 19:29:08 25° NNE 19:29:08 25° NNE
SKYMED 2 4.4 19:27:04 10° N 19:31:17 49° WNW 19:35:29 10° SW
ALOS 2.1 19:26:58 10° SSE 19:31:39 88° ENE 19:36:22 10° NNW
Cosmos 1553 Rocket 4.4 19:27:15 10° N 19:32:36 40° ENE 19:32:36 40° ENE
Cosmos 1092 Rocket 3.9 19:28:32 10° S 19:34:48 66° E 19:41:06 10° NNE
Cosmos 1805 Rocket 4.1 19:32:55 10° SSW 19:37:20 59° WNW 19:41:35 11° N
Cosmos 1340 Rocket 3.9 19:33:40 10° SW 19:37:25 43° WNW 19:40:11 17° N
Iridium 4 Rocket 3.7 19:35:33 10° S 19:38:33 42° SSE 19:38:33 42° SSE
SL-16 R/B 4.5 19:40:54 10° NW 19:43:48 14° NNW 19:46:34 10° NNE
Cosmos 1538 Rocket 3.9 19:38:45 10° SSW 19:44:05 87° ESE 19:45:45 46° NNE
Cosmos 2084 4.2 19:41:03 10° W 19:44:38 38° NNW 19:44:42 38° NNW
Meteor 1-28 Rocket 4.4 19:44:42 22° NNW 19:46:36 40° WNW 19:50:06 10° SW
Cosmos 1869 3.9 19:42:46 10° NNW 19:46:46 57° W 19:50:44 10° S
FENGYUN 3A 3.8 19:42:54 10° S 19:48:15 74° WSW 19:53:41 10° NNW
Cosmos 1371 Rocket 4.2 19:43:52 10° NNW 19:48:22 55° NNE 19:48:22 55° NNE
Cosmos 972 Rocket 3.9 19:46:08 10° NNW 19:51:16 76° ENE 19:51:38 72° ESE
Cosmos 1461 3.4 19:48:28 10° SW 19:51:38 51° SW 19:51:38 51° SW
Sich 1 3.5 19:48:30 10° SSW 19:52:55 61° WNW 19:54:41 34° N
Cosmos 2360 Rocket 4.4 19:50:13 10° WNW 19:53:52 17° NNW 19:57:04 11° NNE
Cosmos 1867 3.5 19:49:17 10° NW 19:54:43 69° NE 19:54:43 69° NE
Aureole 1 Rocket 4.0 19:49:17 10° SSW 19:55:08 74° ESE 19:58:40 33° NNE
Cosmos 1980 Rocket 4.4 19:54:53 10° NNW 19:56:56 12° N 19:57:44 12° NNE
Cosmos 2195 Rocket 4.3 19:53:09 10° S 20:04:56 12° NNE 20:05:19 10° NNE
ATLAS 5 CENTAUR R/B 2.4 19:55:10 10° NW 20:00:39 58° NNE 20:00:39 58° NNE
Cosmos 1633 Rocket 3.6 19:57:15 10° SSW 20:01:35 57° WNW 20:02:19 49° NW
Cosmos 839 Rocket 4.4 19:55:36 10° NW 20:01:59 45° NNE 20:01:59 45° NNE
USA 238 DEB 4.4 19:59:51 10° NW 20:06:22 38° NNE 20:07:09 37° NNE
USA 238 4.4 19:59:56 10° NW 20:06:27 38° NNE 20:07:15 37° NNE
ATLAS 3B R/B 3.2 20:02:42 10° NW 20:09:26 42° NNE 20:09:44 41° NNE
Cosmos 1417 Rocket 4.3 20:10:04 10° N 20:16:20 89° E 20:16:52 76° SSE
Cosmos 2219 Rocket 4.0 20:12:49 10° W 20:17:28 26° NW 20:20:15 18° N
Cosmos 1943 Rocket 2.9 20:12:30 10° NNW 20:16:22 43° N 20:16:22 43° N
Cosmos 2333 Rocket 3.8 20:14:38 10° W 20:19:32 29° NW 20:22:10 21° N
CZ-4C R/B 2.9 20:13:46 10° NW 20:20:12 58° NNE 20:20:12 58° NNE
Cosmos 2263 4.4 20:15:04 10° NNW 20:19:44 62° NNW 20:19:44 62° NNW
Cosmos 773 Rocket 4.4 20:17:28 10° SSW 20:21:46 58° WSW 20:21:46 58° WSW
COSMOS 2455 4.5 20:28:49 10° NW 20:32:40 22° N 20:32:40 22° N
Resurs 01 Rocket 3.7 20:34:15 11° SSW 20:37:50 26° W 20:41:34 10° NW
Lacrosse 5 3.2 20:37:36 10° WNW 20:40:40 37° NW 20:40:40 37° NW
S3M 4.4 20:43:37 10° NNW 20:48:54 59° NW 20:48:54 59° NW
CENTAUR R/B 3.8 20:45:36 10° WNW 20:51:54 37° N 20:52:31 36° N
Cosmos 2369 Rocket 3.1 20:46:44 10° NW 20:51:28 44° W 20:51:28 44° W
Cosmos 2237 Rocket 4.1 20:49:39 10° W 20:54:10 24° NW 20:55:28 22° NNW
USA 229 DEB 4.1 20:49:32 10° SW 20:54:44 55° SW 20:54:44 55° SW
USA 229 4.1 20:49:38 10° SW 20:54:47 55° SW 20:54:47 55° SW
SL-16 R/B 3.5 20:56:03 10° WSW 21:01:08 34° NW 21:01:08 34° NW
ATLAS 5 CENTAUR R/B 4.3 21:39:58 10° NW 21:42:13 23° WNW 21:42:13 23° WNW
ATLAS 3B R/B 4.3 21:53:49 10° NW 21:56:59 29° NW 21:56:59 29° NW
CZ-4C R/B 4.4 22:02:21 10° NW 22:05:24 28° WNW 22:05:24 28° WNW
